Location: Alvediston
(51.0078°N, 2.0364°W)
Time: 09:31:54
(UTC+00:00)

Terra - Pass Details

Date: 27 February 2020
Orbit: 701 x 703 km, 98.2° (Epoch: 27 March)

Event Time Altitude Azimuth Distance (km) Brightness Sun altitude
Exits shadow 21:36:19 16° 356° (N) 1,809 4.3 -35.5°
Drops below altitude 10° 21:37:17 10° 353° (N) 2,183 4.8 -35.6°
Sets 21:39:35 0° 349° (N) 3,106 5.7 -35.9°
